ロニオス彗星

315P/LONEOS (2016)

English version
Home page
Updated on February 8, 2021

---------------------------------------------------------------------

・ プロフィール

符号 315P/2013 V6
検出日 2013年11月6日
検出光度 21.6等
検出者 M. Micheli, Y. Fernandez, C. Lisse, H. Weaver (New Mexico)

・ 写真集

・ 軌道要素

Epoch 2016 Nov. 28.0 TT = JDT 2457720.5
T 2016 Dec. 6.82715 TT                                  MPCW
q   2.4204226            (2000.0)            P               Q
n   0.08780382     Peri.   67.18905     -0.68638327     -0.66768598
a   5.0133396      Node    69.55180     +0.50163449     -0.72162983
e   0.5172035      Incl.   17.91510     +0.52653666     -0.18288200
P  11.23
From 2155 observations 2004 Nov. 3-2018 June 14, mean residual 0".5.

・ 星図

・ 光度変化

        m1 = 11.0 + 5 logΔ + 10.0 log r  [    ,-300]  (              〜2016年 2月10日)
        m1 =  3.2 + 5 logΔ + 25.0 log r  [-300, 300]  (2016年 2月10日〜2017年10月 2日)
        m1 = 11.0 + 5 logΔ + 10.0 log r  [ 300,    ]  (2017年10月 2日〜              )

---------------------------------------------------------------------

軌道要素はM.P.E.C. 2018-S50に掲載されたものです。
星図はステラナビゲータ Ver.8 (アストロアーツ) で作成したものです。
光度グラフはComet for Windowsで作成したものです。

---------------------------------------------------------------------

Copyright(C) Seiichi Yoshida (comet@aerith.net). All rights reserved.